Weather History for Huntsville, AL

Change the Weather History Date:

Saturday, October 16, 2010

  Actual Average Record
Temperature  
Mean Temperature 58 °F 63 °F  
Max Temperature 76 °F 75 °F 89 °F (1915)
Min Temperature 40 °F 51 °F 33 °F (1943)
Degree Days  
Heating Degree Days 7 4  
Month to date heating degree days 57 47  
Since 1 July heating degree days 66 60  
Cooling Degree Days 0 2  
Month to date cooling degree days 29 50  
Year to date cooling degree days 2452 1920  
Growing Degree Days 7 (Base 50)    
Moisture  
Dew Point 40 °F    
Average Humidity 58    
Maximum Humidity 93    
Minimum Humidity 23    
Precipitation  
Precipitation 0.00 in 0.11 in 4.91 in (1932)
Month to date precipitation 0.45 1.78  
Year to date precipitation 32.08 41.82  
Snow  
Snow 0.00 in - - ()
Month to date snowfall 0.0  
Since 1 July snowfall 0.0  
Since 1 September snowfall 0.0  
Snow Depth 0.00 in    
Sea Level Pressure  
Sea Level Pressure 30.16 in    
Wind  
Wind Speed 2 mph (West)    
Max Wind Speed 8 mph    
Max Gust Speed 13 mph    
Visibility 10 miles    
Events      
T = Trace of Precipitation, MM = Missing Value Source: NWS Daily Summary

Daily Weather History Graph

Daily Weather History Graph

Search for Another Location

Airport:

Trip Planner

Search our weather history database for the weather conditions in past years. The results will help you decide how hot, cold, wet, or windy it might be!

Date:

Astronomy

Oct. 16, 2010 Rise Set
Actual Time 6:53 AM CDT 6:11 PM CDT
Civil Twilight 6:28 AM CDT 6:36 PM CDT
Nautical Twilight 5:58 AM CDT 7:05 PM CDT
Astronomical Twilight 5:29 AM CDT 7:35 PM CDT
Moon 2:49 PM CDT (10/16) 1:01 AM CDT (10/16)
Length of Visible Light 12h 08m
Length of Day
11h 17m
Waxing Gibbous, 67% of the Moon is Illuminated
Oct 16
Waxing Gibbous
Oct 22
Full
Oct 30
Last Quarter
Nov 5
New
Nov 13
First Quarter

Hourly Weather History & Observations

Time (CDT) Temp. Windchill Dew Point Humidity Pressure Visibility Wind Dir Wind Speed Gust Speed Precip Events Conditions
12:53 AM 48.9 °F - 37.9 °F 66% 30.12 in 10.0 mi Calm Calm - N/A   Clear
1:53 AM 46.0 °F 43.9 °F 39.0 °F 76% 30.12 in 10.0 mi NNW 4.6 mph - N/A   Clear
2:53 AM 44.1 °F - 39.0 °F 82% 30.12 in 10.0 mi Calm Calm - N/A   Clear
3:53 AM 43.0 °F 40.3 °F 39.9 °F 89% 30.12 in 10.0 mi SSE 4.6 mph - N/A   Clear
4:53 AM 42.1 °F - 39.0 °F 89% 30.13 in 10.0 mi Calm Calm - N/A   Clear
5:53 AM 41.0 °F - 37.9 °F 89% 30.17 in 10.0 mi Calm Calm - N/A   Clear
6:53 AM 39.9 °F - 37.9 °F 93% 30.19 in 10.0 mi Calm Calm - N/A   Clear
7:53 AM 46.0 °F - 44.1 °F 93% 30.20 in 10.0 mi Calm Calm - N/A   Clear
8:53 AM 51.8 °F - 42.8 °F 71% 30.22 in 10.0 mi Calm Calm - N/A   Clear
9:53 AM 59.0 °F - 44.1 °F 58% 30.22 in 10.0 mi Calm Calm - N/A   Clear
10:53 AM 64.9 °F - 41.0 °F 42% 30.22 in 10.0 mi Calm Calm - N/A   Clear
11:53 AM 68.0 °F - 39.9 °F 36% 30.22 in 10.0 mi South 3.5 mph - N/A   Clear
12:53 PM 71.1 °F - 37.0 °F 29% 30.18 in 10.0 mi East 4.6 mph - N/A   Clear
1:53 PM 73.0 °F - 37.9 °F 28% 30.15 in 10.0 mi Variable 5.8 mph - N/A   Clear
2:53 PM 73.9 °F - 36.0 °F 25% 30.13 in 10.0 mi Calm Calm - N/A   Clear
3:53 PM 75.0 °F - 36.0 °F 24% 30.13 in 10.0 mi WNW 5.8 mph - N/A   Clear
4:53 PM 73.9 °F - 36.0 °F 25% 30.13 in 10.0 mi NW 6.9 mph - N/A   Clear
5:53 PM 69.1 °F - 41.0 °F 36% 30.13 in 10.0 mi WSW 4.6 mph - N/A   Clear
6:53 PM 63.0 °F - 42.1 °F 46% 30.14 in 10.0 mi West 3.5 mph - N/A   Clear
7:53 PM 59.0 °F - 43.0 °F 55% 30.14 in 10.0 mi Calm Calm - N/A   Clear
8:53 PM 55.9 °F - 43.0 °F 62% 30.15 in 10.0 mi Calm Calm - N/A   Clear
9:53 PM 53.1 °F - 44.1 °F 71% 30.16 in 10.0 mi East 3.5 mph - N/A   Clear
10:53 PM 50.0 °F - 44.1 °F 80% 30.17 in 10.0 mi Calm Calm - N/A   Clear
11:53 PM 51.1 °F - 44.1 °F 77% 30.16 in 10.0 mi Calm Calm - N/A   Clear